EW7290 Weather Reports


time (UTC)temp
C
wind
direction
speed
KPH
gust
KPH
rain 1hr
cm
rain 24hr
cm
rain mn
cm
humidity
%
barometer
mb
20260507060008 6 114 8.0 12.9 0.00 0.00 0.00 44 1011.5
20260507054509 6 116 8.0 11.3 0.00 0.00 0.00 45 1011.6
20260507053005 5 115 9.7 12.9 0.00 0.00 0.00 46 1011.9
20260507051600 6 114 9.7 14.5 0.00 0.00 0.00 44 1012.0
20260507050058 6 111 8.0 11.3 0.00 0.00 0.00 42 1012.2
20260507044555 6 109 9.7 11.3 0.00 0.00 0.00 43 1012.3
20260507043053 7 103 9.7 11.3 0.00 0.00 0.00 38 1012.5
20260507041558 7 146 1.6 3.2 0.00 0.00 0.00 37 1012.6
20260507034608 8 217 0.0 1.6 0.00 0.00 0.00 37 1012.9
20260507033102 8 215 0.0 3.2 0.00 0.00 0.00 36 1013.1
20260507031546 9 217 0.0 1.6 0.00 0.00 0.00 35 1013.2
20260507030045 9 216 0.0 1.6 0.00 0.00 0.00 34 1013.3
20260507024554 9 212 1.6 3.2 0.00 0.00 0.00 35 1013.3
20260507023044 10 207 0.0 3.2 0.00 0.00 0.00 36 1013.2
20260507021544 9 205 1.6 3.2 0.00 0.00 0.00 35 1013.4
20260507020045 9 198 3.2 6.4 0.00 0.00 0.00 35 1013.4
20260507014542 10 213 3.2 8.0 0.00 0.00 0.00 34 1013.4
20260507013041 10 300 4.8 9.7 0.00 0.00 0.00 34 1013.5
20260507011541 11 229 6.4 11.3 0.00 0.00 0.00 33 1013.6
20260507010041 12 244 9.7 16.1 0.00 0.00 0.00 30 1013.6
20260507004538 12 243 8.0 14.5 0.00 0.00 0.00 29 1013.6
20260507003038 12 240 9.7 17.7 0.00 0.00 0.00 29 1013.8
20260507001551 12 238 9.7 19.3 0.00 0.00 0.00 30 1014.0
20260507000033 12 217 8.0 19.3 0.00 0.00 0.00 29 1014.2
20260506234545 12 183 11.3 19.3 0.00 0.00 0.00 29 1014.3
20260506233031 12 209 12.9 22.5 0.00 0.00 0.00 28 1014.5
20260506231535 13 221 12.9 22.5 0.00 0.00 0.00 28 1014.4
20260506230028 12 235 11.3 29.0 0.00 0.00 0.00 28 1014.6
20260506224529 13 248 17.7 29.0 0.00 0.00 0.00 28 1014.6
20260506223024 12 190 12.9 20.9 0.00 0.00 0.00 29 1014.8
20260506221522 12 206 12.9 27.4 0.00 0.00 0.00 29 1014.9
20260506220031 12 232 9.7 22.5 0.00 0.00 0.00 28 1015.1
20260506214518 12 254 9.7 19.3 0.00 0.00 0.00 29 1015.4
20260506213017 12 228 16.1 27.4 0.00 0.00 0.00 29 1015.5
20260506211520 12 229 17.7 27.4 0.00 0.00 0.00 29 1015.7
20260506210014 11 235 8.0 27.4 0.00 0.00 0.00 31 1015.9
20260506204515 12 211 14.5 22.5 0.00 0.00 0.00 29 1016.1
20260506203015 12 247 19.3 29.0 0.00 0.00 0.00 29 1016.2
20260506201516 12 257 9.7 29.0 0.00 0.00 0.00 30 1016.5
20260506200011 12 200 16.1 37.0 0.00 0.00 0.00 30 1016.7
20260506194510 11 231 9.7 33.8 0.00 0.00 0.00 30 1016.7
20260506193009 11 249 19.3 32.2 0.00 0.00 0.00 30 1016.8
20260506191507 11 203 14.5 33.8 0.00 0.00 0.00 30 1016.9
20260506190005 11 225 11.3 27.4 0.00 0.00 0.00 32 1017.0
20260506184503 11 215 16.1 25.7 0.00 0.00 0.00 32 1017.3
20260506183106 10 209 12.9 35.4 0.00 0.00 0.00 32 1017.5
20260506181626 10 243 9.7 41.8 0.00 0.00 0.00 32 1017.7
20260506180111 10 221 11.3 27.4 0.00 0.00 0.00 33 1018.0
20260506174555 10 230 8.0 24.1 0.00 0.00 0.00 34 1018.2
20260506173121 10 247 17.7 27.4 0.00 0.00 0.00 32 1018.3
20260506171601 9 241 20.9 37.0 0.00 0.00 0.00 33 1018.3
20260506170059 9 225 17.7 30.6 0.00 0.00 0.00 33 1018.5
20260506164550 8 227 11.3 19.3 0.00 0.00 0.00 35 1018.5
20260506163050 9 253 19.3 35.4 0.00 0.00 0.00 33 1018.6
20260506161550 8 242 16.1 30.6 0.00 0.00 0.00 34 1018.6
20260506160059 8 233 9.7 29.0 0.00 0.00 0.00 35 1018.5
20260506154549 8 242 14.5 25.7 0.00 0.00 0.00 35 1018.5
20260506153043 7 320 17.7 30.6 0.00 0.00 0.00 37 1018.7
20260506151545 7 290 12.9 29.0 0.00 0.00 0.00 39 1018.7
20260506150040 7 205 11.3 27.4 0.00 0.00 0.00 39 1018.8
20260506144542 7 209 12.9 25.7 0.00 0.00 0.00 42 1018.9
20260506143036 7 263 9.7 16.1 0.00 0.00 0.00 47 1018.9
20260506141532 6 227 9.7 16.1 0.00 0.00 0.00 50 1019.1
20260506140030 5 190 6.4 14.5 0.00 0.00 0.00 54 1019.2
20260506134525 3 198 4.8 8.0 0.00 0.00 0.00 64 1019.1
20260506133022 2 248 6.4 9.7 0.00 0.00 0.00 69 1019.1
20260506131538 1 253 4.8 11.3 0.00 0.00 0.00 73 1019.0
20260506130029 -1 236 4.8 9.7 0.00 0.00 0.00 77 1018.8
20260506124516 -1 247 4.8 8.0 0.00 0.00 0.00 77 1018.7
20260506123014 -2 242 1.6 6.4 0.00 0.00 0.00 75 1018.5
20260506121515 -2 220 3.2 6.4 0.00 0.00 0.00 75 1018.3
20260506120015 -2 306 4.8 6.4 0.00 0.00 0.00 74 1017.9
20260506114507 -2 306 1.6 4.8 0.00 0.00 0.00 73 1017.5
20260506113005 -1 306 3.2 6.4 0.00 0.00 0.00 72 1017.4
20260506111504 -1 306 4.8 8.0 0.00 0.00 0.00 71 1017.2
20260506110003 -1 306 4.8 6.4 0.00 0.00 0.00 69 1017.2
20260506104503 -1 306 4.8 6.4 0.00 0.00 0.00 71 1017.1
20260506103001 -1 306 1.6 4.8 0.00 0.00 0.00 71 1017.2
20260506101601 -1 306 3.2 6.4 0.00 0.00 0.00 72 1017.0
20260506100100 -2 306 4.8 8.0 0.00 0.00 0.00 75 1016.9
20260506094621 -2 306 4.8 8.0 0.00 0.00 0.00 72 1017.0
20260506093052 -2 306 4.8 8.0 0.00 0.00 0.00 72 1016.7
20260506091550 -1 306 4.8 8.0 0.00 0.00 0.00 69 1016.7
20260506090047 -1 306 4.8 8.0 0.00 0.00 0.00 69 1016.5
20260506084546 0 306 6.4 12.9 0.00 0.00 0.00 66 1016.6
20260506083044 0 306 6.4 9.7 0.00 0.00 0.00 66 1016.5
20260506081543 0 306 6.4 8.0 0.00 0.00 0.00 61 1016.7
20260506073036 0 306 6.4 8.0 0.00 0.00 0.00 60 1016.5
20260506071535 2 304 4.8 6.4 0.00 0.00 0.00 56 1016.6
20260506061524 2 304 1.6 3.2 0.00 0.00 0.00 54 1016.1